GW5323 Weather Reports


Display with metric or nautical units.
time (UTC)temp
F
wind
direction
speed
MPH
gust
MPH
rain 1hr
in
rain 24hr
in
rain mn
in
humidity
%
barometer
mb
20260509074723 0 0.0 0.0 0.00 0.01 0.01 1013.3
20260509074221 0 0.0 0.0 0.00 0.01 0.01 1013.6
20260509073716 0 0.0 0.0 0.00 0.01 0.01 1013.7
20260509073213 0 0.0 0.0 0.00 0.01 0.01 1013.5
20260509072709 0 0.0 0.0 0.00 0.01 0.01 1013.6
20260509072206 0 0.0 0.0 0.00 0.01 0.01 1013.8
20260509071703 0 0.0 0.0 0.00 0.01 0.01 1013.5
20260509071201 0 0.0 0.0 0.00 0.01 0.01 1013.6
20260509070657 0 0.0 0.0 0.00 0.01 0.01 1013.7
20260509070154 0 0.0 0.0 0.00 0.01 0.01 1013.4
20260509065650 0 0.0 0.0 0.02 0.01 0.01 1013.7
20260509065146 0 0.0 0.0 0.02 0.01 0.01 1013.7
20260509064643 0 0.0 0.0 0.00 0.00 0.00 1013.9
20260509064141 0 0.0 0.0 0.00 0.00 0.00 1014.0
20260509063637 0 0.0 0.0 0.00 0.00 0.00 1014.0
20260509063134 0 0.0 0.0 0.00 0.00 0.00 1014.2
20260509062631 0 0.0 0.0 0.00 0.00 0.00 1014.2
20260509062128 0 0.0 0.0 0.00 0.00 0.00 1014.4
20260509061625 0 0.0 0.0 0.00 0.00 0.00 1014.5
20260509061122 0 0.0 0.0 0.00 0.00 0.00 1014.7
20260509060620 0 0.0 0.0 0.00 0.00 0.00 1014.8
20260509060115 0 0.0 0.0 0.00 0.00 0.00 1014.7
20260509055611 0 0.0 0.0 0.00 0.00 0.00 1014.7
20260509055107 0 0.0 0.0 0.00 0.00 0.00 1014.8
20260509054604 0 0.0 0.0 0.00 0.00 0.00 1014.9
20260509054102 0 0.0 0.0 0.00 0.00 0.00 1014.7
20260509053600 0 0.0 0.0 0.00 0.00 0.00 1014.7
20260509053057 0 0.0 0.0 0.00 0.00 0.00 1014.9
20260509052555 0 0.0 0.0 0.00 0.00 0.00 1014.9
20260509052053 0 0.0 0.0 0.00 0.00 0.00 1014.9
20260509051550 0 0.0 0.0 0.00 0.00 0.00 1015.2
20260509051047 0 0.0 0.0 0.00 0.00 0.00 1015.3
20260509050544 0 0.0 0.0 0.02 0.00 0.00 1015.3
20260509050040 48 269 0.0 0.0 0.02 0.00 0.00 94 1015.5
20260509045538 48 269 0.0 0.0 0.00 0.00 0.00 94 1015.6
20260509045034 48 269 0.0 0.0 0.00 0.00 0.00 94 1015.4
20260509044532 48 269 0.0 0.0 0.00 0.00 0.00 94 1015.4
20260509044029 48 269 0.0 0.0 0.00 0.00 0.00 94 1015.3
20260509043526 48 269 0.0 0.0 0.00 0.00 0.00 94 1015.4
20260509043021 48 269 0.0 0.0 0.00 0.00 0.00 94 1015.5
20260509042518 48 269 0.0 0.0 0.00 0.00 0.00 94 1015.2
20260509042014 48 269 0.0 0.0 0.00 0.00 0.00 94 1015.3
20260509041511 48 269 0.0 0.0 0.00 0.00 0.00 94 1015.4
20260509041009 48 269 0.0 0.0 0.00 0.00 0.00 94 1015.4
20260509040507 48 269 0.0 0.0 0.00 0.00 0.00 94 1015.2
20260509040003 48 110 0.0 0.0 0.00 0.00 0.00 91 1015.4
20260509035500 48 110 0.0 0.0 0.00 0.00 0.00 91 1015.4
20260509034956 48 110 0.0 0.0 0.00 0.00 0.00 91 1015.4
20260509034455 48 110 0.0 0.0 0.00 0.00 0.00 91 1015.5
20260509033951 48 110 0.0 0.0 0.00 0.00 0.00 91 1015.5
20260509033448 48 110 0.0 0.0 0.00 0.00 0.00 91 1015.4
20260509032945 48 110 0.0 0.0 0.00 0.00 0.00 91 1015.5
20260509032442 48 110 0.0 0.0 0.00 0.00 0.00 91 1015.6
20260509031940 48 110 0.0 0.0 0.00 0.00 0.00 91 1015.6
20260509031437 48 110 0.0 0.0 0.00 0.00 0.00 91 1015.5
20260509030934 48 110 0.0 0.0 0.00 0.00 0.00 91 1015.3
20260509030432 48 110 0.0 0.0 0.00 0.00 0.00 91 1015.4
20260509025929 48 104 1.0 1.0 0.00 0.00 0.00 91 1015.2
20260509025425 48 94 0.0 0.0 0.00 0.00 0.00 90 1015.3
20260509024920 48 112 1.0 3.0 0.00 0.00 0.00 90 1015.4
20260509024416 48 287 1.0 2.0 0.00 0.00 0.00 90 1015.2
20260509023914 48 282 0.0 0.0 0.00 0.00 0.00 90 1015.2
20260509023411 48 245 0.0 0.0 0.00 0.00 0.00 90 1015.5
20260509022907 48 269 0.0 1.0 0.00 0.00 0.00 90 1015.6
20260509022405 51 269 0.0 2.0 0.00 0.00 0.00 79 1015.8
20260509021902 51 269 0.0 2.0 0.00 0.00 0.00 79 1015.5
20260509021358 51 269 0.0 2.0 0.00 0.00 0.00 79 1015.5
20260509020856 51 269 0.0 2.0 0.00 0.00 0.00 79 1015.9
20260509020354 51 269 0.0 2.0 0.00 0.00 0.00 79 1015.5
20260509015851 51 269 0.0 2.0 0.00 0.00 0.00 79 1015.2
20260509015349 51 269 0.0 2.0 0.00 0.00 0.00 79 1015.2
20260509014846 51 269 0.0 2.0 0.00 0.00 0.00 79 1015.3
20260509014342 51 269 0.0 2.0 0.00 0.00 0.00 79 1015.2
20260509013839 51 269 0.0 2.0 0.00 0.00 0.00 79 1014.7
20260509013336 53 102 2.0 3.0 0.00 0.00 0.00 72 1014.8
20260509012832 53 102 2.0 3.0 0.00 0.00 0.00 72 1015.4
20260509012328 53 102 2.0 3.0 0.00 0.00 0.00 72 1015.3
20260509011826 53 102 2.0 3.0 0.00 0.00 0.00 72 1015.8
20260509011323 53 102 2.0 3.0 0.00 0.00 0.00 72 1015.4
20260509010821 53 102 2.0 3.0 0.00 0.00 0.00 72 1015.1
20260509010318 53 102 2.0 3.0 0.00 0.00 0.00 72 1014.9
20260509005816 53 102 2.0 3.0 0.00 0.00 0.00 72 1014.5
20260509005314 53 102 2.0 3.0 0.00 0.00 0.00 72 1014.7
20260509004813 53 102 2.0 3.0 0.00 0.00 0.00 72 1014.6
20260509004310 53 102 2.0 3.0 0.00 0.00 0.00 72 1014.3
20260509003808 53 102 2.0 3.0 0.00 0.00 0.00 72 1014.4
20260509003306 53 75 3.0 4.0 0.00 0.00 0.00 70 1014.6
20260509002802 54 77 4.0 5.0 0.00 0.00 0.00 67 1014.7
20260509002300 54 77 4.0 5.0 0.00 0.00 0.00 67 1014.8
20260509001758 54 77 4.0 5.0 0.00 0.00 0.00 67 1014.9
20260509001253 54 77 4.0 5.0 0.00 0.00 0.00 67 1014.8
20260509000751 54 77 4.0 5.0 0.00 0.00 0.00 67 1014.9
20260509000248 54 77 4.0 5.0 0.00 0.00 0.00 67 1014.7
20260508235745 54 77 4.0 5.0 0.00 0.00 0.00 67 1014.7
20260508235241 54 47 6.0 6.0 0.00 0.00 0.00 66 1014.6
20260508234739 55 35 4.0 5.0 0.00 0.00 0.00 66 1014.6
20260508234235 55 87 5.0 7.0 0.00 0.00 0.00 66 1014.6
20260508233735 55 0 5.0 7.0 0.00 0.00 0.00 65 1014.4
20260508233233 55 249 11.0 13.0 0.00 0.00 0.00 65 1014.5
20260508232730 55 30 3.0 4.0 0.00 0.00 0.00 68 1014.5
20260508232226 55 37 5.0 9.0 0.00 0.00 0.00 65 1014.4
20260508231724 55 37 5.0 9.0 0.00 0.00 0.00 65 1014.7
20260508231220 55 37 5.0 9.0 0.00 0.00 0.00 65 1014.3
20260508230717 55 37 5.0 9.0 0.00 0.00 0.00 65 1014.4
20260508230213 55 37 5.0 9.0 0.00 0.00 0.00 65 1014.2
20260508225712 55 56 7.0 11.0 0.00 0.00 0.00 65 1014.3
20260508225207 56 77 2.0 16.0 0.00 0.00 0.00 65 1014.2
20260508224706 56 110 4.0 4.0 0.00 0.00 0.00 66 1014.1
20260508224203 56 39 5.0 6.0 0.00 0.00 0.00 67 1014.3
20260508223700 56 51 6.0 6.0 0.00 0.00 0.00 67 1014.2
20260508223157 56 354 2.0 10.0 0.00 0.00 0.00 67 1014.2
20260508222655 56 24 7.0 10.0 0.00 0.00 0.00 66 1014.3
20260508222152 56 58 5.0 9.0 0.00 0.00 0.00 66 1014.2
20260508221648 56 45 5.0 15.0 0.00 0.00 0.00 65 1014.4
20260508221144 58 96 4.0 10.0 0.00 0.00 0.00 67 1014.3
20260508220641 57 93 5.0 13.0 0.00 0.00 0.00 68 1014.4
20260508220138 56 70 4.0 6.0 0.00 0.00 0.00 69 1014.5
20260508215634 55 51 2.0 6.0 0.00 0.00 0.00 70 1014.6
20260508215131 56 43 4.0 6.0 0.00 0.00 0.00 71 1014.5
20260508214627 56 33 6.0 6.0 0.00 0.00 0.00 69 1014.6
20260508214125 55 48 6.0 8.0 0.00 0.00 0.00 71 1014.5
20260508213621 55 35 2.0 5.0 0.00 0.00 0.00 72 1014.4
20260508213117 55 51 6.0 11.0 0.00 0.00 0.00 71 1014.4
20260508212614 55 47 7.0 8.0 0.00 0.00 0.00 71 1014.4
20260508212111 54 81 7.0 9.0 0.00 0.00 0.00 72 1014.3
20260508211612 54 47 4.0 5.0 0.00 0.00 0.00 73 1014.4
20260508211108 53 30 8.0 9.0 0.00 0.00 0.00 73 1014.4
20260508210605 53 37 5.0 6.0 0.00 0.00 0.00 74 1014.5
20260508205559 53 94 7.0 8.0 0.00 0.00 0.00 76 1014.2
20260508205056 53 112 6.0 10.0 0.00 0.00 0.00 74 1014.5
20260508204552 53 97 3.0 4.0 0.00 0.00 0.00 75 1014.4
20260508204048 53 71 9.0 10.0 0.00 0.00 0.00 73 1014.6
20260508203545 52 34 3.0 7.0 0.00 0.00 0.00 74 1014.9
20260508203041 52 34 4.0 6.0 0.02 0.00 0.00 75 1014.8
20260508202537 53 35 3.0 12.0 0.02 0.00 0.00 74 1015.1
20260508202035 53 58 8.0 17.0 0.00 0.00 0.00 72 1015.1
20260508201531 55 42 8.0 13.0 0.00 0.00 0.00 64 1014.8
20260508201028 56 47 7.0 13.0 0.00 0.00 0.00 59 1014.5
20260508200525 57 59 4.0 15.0 0.00 0.00 0.00 54 1014.5
20260508200021 58 67 6.0 15.0 0.00 0.00 0.00 53 1014.2
20260508195518 59 42 9.0 13.0 0.00 0.00 0.00 51 1014.3
20260508195014 59 26 5.0 13.0 0.00 0.00 0.00 52 1014.4
20260508194511 60 36 5.0 13.0 0.00 0.00 0.00 52 1014.3
20260508194008 60 345 3.0 5.0 0.00 0.00 0.00 53 1014.1
20260508193504 59 353 4.0 7.0 0.00 0.00 0.00 52 1014.4
20260508193001 60 68 9.0 11.0 0.00 0.00 0.00 50 1014.5
20260508192457 59 40 11.0 12.0 0.00 0.00 0.00 49 1014.3
20260508191954 59 52 5.0 13.0 0.00 0.00 0.00 49 1014.2
20260508191452 59 38 2.0 6.0 0.00 0.00 0.00 49 1014.4
20260508190948 59 71 5.0 8.0 0.00 0.00 0.00 50 1014.2
20260508190446 59 23 2.0 5.0 0.00 0.00 0.00 55 1014.4
20260508185942 58 22 5.0 5.0 0.00 0.00 0.00 53 1014.3
20260508185440 58 63 4.0 4.0 0.00 0.00 0.00 54 1014.0
20260508184937 59 77 4.0 8.0 0.00 0.00 0.00 54 1014.0
20260508184434 59 160 1.0 11.0 0.00 0.00 0.00 55 1014.0
20260508183930 60 109 3.0 10.0 0.00 0.00 0.00 56 1014.0
20260508183427 61 99 4.0 10.0 0.00 0.00 0.00 58 1014.4
20260508182922 59 34 8.0 8.0 0.00 0.00 0.00 48 1014.3
20260508182420 59 118 19.0 19.0 0.00 0.00 0.00 49 1014.5
20260508181915 59 276 2.0 3.0 0.00 0.00 0.00 52 1014.3
20260508181412 59 276 2.0 3.0 0.00 0.00 0.00 52 1014.0
20260508180909 59 63 5.0 11.0 0.00 0.00 0.00 53 1014.3
20260508180406 61 358 2.0 4.0 0.00 0.00 0.00 56 1014.4
20260508175902 60 28 5.0 9.0 0.00 0.00 0.00 49 1014.7
20260508175359 61 37 3.0 9.0 0.00 0.00 0.00 53 1014.7
20260508174857 60 43 9.0 11.0 0.00 0.00 0.00 50 1014.8
20260508174354 61 20 4.0 5.0 0.00 0.00 0.00 53 1014.9
20260508173850 59 46 7.0 9.0 0.00 0.00 0.00 55 1015.0
20260508173348 59 50 5.0 8.0 0.00 0.00 0.00 53 1015.1
20260508172843 59 33 10.0 11.0 0.00 0.00 0.00 54 1015.1
20260508172341 58 122 6.0 8.0 0.00 0.00 0.00 58 1015.2
20260508171837 58 276 2.0 3.0 0.00 0.00 0.00 59 1015.1
20260508171333 56 79 6.0 15.0 0.00 0.00 0.00 58 1015.3
20260508170830 56 68 8.0 13.0 0.00 0.00 0.00 54 1015.4
20260508170328 56 41 4.0 14.0 0.00 0.00 0.00 54 1015.4
20260508165825 56 102 10.0 11.0 0.00 0.00 0.00 55 1015.5
20260508165322 56 60 4.0 14.0 0.00 0.00 0.00 52 1015.5
20260508164818 57 35 9.0 10.0 0.00 0.00 0.00 51 1015.2
20260508164315 58 47 3.0 8.0 0.00 0.00 0.00 52 1015.1
20260508163813 58 39 6.0 9.0 0.00 0.00 0.00 50 1015.3
20260508163310 57 86 4.0 12.0 0.00 0.00 0.00 51 1015.3
20260508162806 57 68 4.0 8.0 0.00 0.00 0.00 52 1015.5
20260508162306 56 59 7.0 13.0 0.00 0.00 0.00 51 1015.4
20260508161800 58 99 6.0 12.0 0.00 0.00 0.00 49 1015.4
20260508161257 58 24 8.0 12.0 0.00 0.00 0.00 50 1015.4
20260508160755 58 57 12.0 15.0 0.00 0.00 0.00 49 1015.5
20260508160253 57 91 5.0 10.0 0.00 0.00 0.00 53 1015.4
20260508155749 57 71 13.0 16.0 0.00 0.00 0.00 52 1015.6
20260508155246 56 69 4.0 9.0 0.00 0.00 0.00 51 1015.6
20260508154743 57 88 14.0 17.0 0.00 0.00 0.00 50 1015.6
20260508154241 59 33 6.0 12.0 0.00 0.00 0.00 50 1015.6
20260508153737 57 106 9.0 13.0 0.00 0.00 0.00 52 1015.4
20260508153235 57 62 8.0 17.0 0.00 0.00 0.00 53 1015.6
20260508152731 57 75 12.0 18.0 0.00 0.00 0.00 50 1015.4
20260508152226 58 63 7.0 14.0 0.00 0.00 0.00 53 1015.6
20260508151723 57 24 2.0 15.0 0.00 0.00 0.00 53 1015.4
20260508151220 57 56 7.0 13.0 0.00 0.00 0.00 54 1015.5
20260508150716 57 5 4.0 9.0 0.00 0.00 0.00 55 1015.4
20260508150213 57 74 8.0 16.0 0.00 0.00 0.00 52 1015.8
20260508145709 57 52 8.0 18.0 0.00 0.00 0.00 54 1015.2
20260508145205 57 37 5.0 14.0 0.00 0.00 0.00 54 1015.4
20260508144703 57 22 6.0 16.0 0.00 0.00 0.00 52 1015.3
20260508144201 57 271 5.0 13.0 0.00 0.00 0.00 53 1015.3
20260508143658 56 42 14.0 16.0 0.00 0.00 0.00 52 1015.4
20260508143155 56 45 9.0 11.0 0.00 0.00 0.00 53 1015.4
20260508142651 56 66 5.0 11.0 0.00 0.00 0.00 57 1015.4
20260508142148 55 65 5.0 9.0 0.00 0.00 0.00 54 1015.5
20260508141644 55 52 11.0 13.0 0.00 0.00 0.00 53 1015.6
20260508141142 56 32 7.0 8.0 0.00 0.00 0.00 53 1015.8
20260508140639 56 54 9.0 11.0 0.00 0.00 0.00 53 1015.8
20260508140136 55 34 12.0 15.0 0.00 0.00 0.00 55 1015.8
20260508135632 57 198 2.0 4.0 0.00 0.00 0.00 52 1015.5
20260508135128 55 26 4.0 7.0 0.00 0.00 0.00 56 1015.6
20260508134625 55 284 3.0 5.0 0.00 0.00 0.00 56 1015.9
20260508134122 54 280 5.0 6.0 0.00 0.00 0.00 55 1015.9
20260508133618 54 300 2.0 3.0 0.00 0.00 0.00 57 1016.0
20260508133116 53 29 2.0 9.0 0.00 0.00 0.00 56 1015.9
20260508132613 53 292 3.0 6.0 0.00 0.00 0.00 55 1016.0
20260508132110 51 76 3.0 5.0 0.00 0.00 0.00 61 1015.9
20260508131606 51 217 0.0 6.0 0.00 0.00 0.00 59 1016.0
20260508131103 52 8 0.0 3.0 0.00 0.00 0.00 59 1016.2
20260508130559 51 155 2.0 3.0 0.00 0.00 0.00 60 1016.4
20260508130056 50 55 5.0 5.0 0.00 0.00 0.00 61 1016.4
20260508125551 49 275 3.0 5.0 0.00 0.00 0.00 64 1016.2
20260508125049 48 49 2.0 7.0 0.00 0.00 0.00 66 1016.2
20260508124548 48 23 0.0 4.0 0.00 0.00 0.00 70 1016.3
20260508124044 45 315 0.0 3.0 0.00 0.00 0.00 76 1016.2
20260508123542 42 239 2.0 2.0 0.00 0.00 0.00 84 1016.3
20260508123039 40 272 0.0 2.0 0.00 0.00 0.00 95 1016.5
20260508122536 38 127 0.0 0.0 0.00 0.00 0.00 97 1016.5
20260508122033 38 218 0.0 1.0 0.00 0.00 0.00 98 1016.6
20260508121531 37 232 0.0 1.0 0.00 0.00 0.00 98 1016.5
20260508121028 36 229 1.0 2.0 0.00 0.00 0.00 99 1016.5
20260508120525 36 222 1.0 1.0 0.00 0.00 0.00 99 1016.4
20260508120024 35 214 0.0 1.0 0.00 0.00 0.00 99 1016.6
20260508115521 35 284 0.0 1.0 0.00 0.00 0.00 99 1016.4
20260508115017 35 25 0.0 0.0 0.00 0.00 0.00 99 1016.5
20260508114515 35 69 0.0 0.0 0.00 0.00 0.00 99 1016.4
20260508114011 34 323 0.0 1.0 0.00 0.00 0.00 99 1016.5
20260508113509 34 296 1.0 1.0 0.00 0.00 0.00 99 1016.5
20260508113006 33 113 0.0 1.0 0.00 0.00 0.00 99 1016.5
20260508112502 33 76 0.0 1.0 0.00 0.00 0.00 99 1016.5
20260508111959 33 25 0.0 2.0 0.00 0.00 0.00 99 1016.6
20260508111456 33 305 1.0 2.0 0.00 0.00 0.00 99 1016.6
20260508110953 32 269 2.0 2.0 0.00 0.00 0.00 99 1016.6
20260508110451 32 334 0.0 2.0 0.00 0.00 0.00 99 1016.6
20260508105950 31 275 1.0 2.0 0.00 0.00 0.00 99 1016.6
20260508105447 31 157 1.0 2.0 0.00 0.00 0.00 99 1016.5
20260508104944 30 224 0.0 2.0 0.00 0.00 0.00 99 1016.3
20260508104442 30 224 0.0 0.0 0.00 0.00 0.00 99 1016.4
20260508103938 30 314 2.0 2.0 0.00 0.00 0.00 99 1016.3
20260508103435 30 201 1.0 2.0 0.00 0.00 0.00 99 1016.2
20260508102932 30 276 0.0 2.0 0.00 0.00 0.00 99 1016.2
20260508102431 30 266 0.0 1.0 0.00 0.00 0.00 99 1016.1
20260508101927 30 251 2.0 2.0 0.00 0.00 0.00 99 1016.0
20260508101425 30 179 0.0 1.0 0.00 0.00 0.00 99 1016.2
20260508100922 30 33 1.0 2.0 0.00 0.00 0.00 99 1016.3
20260508100421 30 253 0.0 1.0 0.00 0.00 0.00 99 1016.0
20260508095916 30 241 1.0 2.0 0.00 0.00 0.00 99 1016.0
20260508095414 29 256 1.0 2.0 0.00 0.00 0.00 99 1016.1
20260508094910 29 226 0.0 2.0 0.00 0.00 0.00 99 1016.1
20260508094408 29 254 2.0 2.0 0.00 0.00 0.00 99 1015.9
20260508093904 29 200 1.0 2.0 0.00 0.00 0.00 99 1016.0
20260508093402 29 245 1.0 3.0 0.00 0.00 0.00 99 1016.1
20260508092859 29 218 1.0 2.0 0.00 0.00 0.00 99 1015.9
20260508092357 29 358 1.0 2.0 0.00 0.00 0.00 99 1016.1
20260508091855 29 76 0.0 2.0 0.00 0.00 0.00 99 1015.8
20260508091351 30 242 2.0 2.0 0.00 0.00 0.00 99 1015.8
20260508090849 30 248 2.0 2.0 0.00 0.00 0.00 99 1015.9
20260508090348 29 246 0.0 1.0 0.00 0.00 0.00 99 1016.0
20260508085843 29 223 1.0 2.0 0.00 0.00 0.00 99 1015.9
20260508085340 29 218 0.0 1.0 0.00 0.00 0.00 99 1015.9
20260508084836 30 34 0.0 2.0 0.00 0.00 0.00 99 1015.6
20260508084333 30 225 2.0 2.0 0.00 0.00 0.00 99 1015.6
20260508083831 30 309 0.0 2.0 0.00 0.00 0.00 99 1015.9
20260508083328 30 224 1.0 2.0 0.00 0.00 0.00 99 1015.5
20260508082827 30 252 0.0 2.0 0.00 0.00 0.00 99 1015.6
20260508082326 30 269 0.0 2.0 0.00 0.00 0.00 99 1015.8
20260508081823 30 244 0.0 2.0 0.00 0.00 0.00 99 1015.8
20260508081320 30 282 1.0 2.0 0.00 0.00 0.00 99 1015.5
20260508080817 30 297 1.0 1.0 0.00 0.00 0.00 99 1015.8
20260508080315 30 235 1.0 1.0 0.00 0.00 0.00 99 1015.9
20260508075811 31 329 0.0 1.0 0.00 0.00 0.00 99 1015.8
20260508075309 31 212 1.0 2.0 0.00 0.00 0.00 99 1015.6